Regional Weather Roundup
Issued by NWS Albany, NY

Home | Current Version | Previous Version | Graphics & Text | Print | Product List | Glossary Off
Versions: 1 2 3 4 5 6 7 8 9 10 11 12 13 14 15 16 17 18 19 20 21 22 23 24 25 26 27 28 29 30 31 32 33 34 35 36 37 38 39 40 41 42 43 44 45 46 47 48 49 50

859
ASUS41 KALY 261910
RWRALY

NEW YORK STATE HOURLY WEATHER ROUNDUP
NATIONAL WEATHER SERVICE ALBANY NY
300 PM EDT WED APR 26 2017

NOTE: "FAIR" INDICATES FEW OR NO CLOUDS BELOW 12,000 FEET WITH NO
SIGNIFICANT WEATHER AND/OR NO OBSTRUCTIONS TO VISIBILITY.

NYZ032-033-038>043-046>054-057>066-NYZ062>081-082-084-262000-
EAST


CITY           SKY/WX    TMP DP  RH WIND       PRES   REMARKS
ALBANY         PTSUNNY   66  56  70 N3        29.80F
GLENS FALLS    CLOUDY    69  55  60 NE8       29.80F
POUGHKEEPSIE   CLOUDY    60  56  86 NW6       29.78S
NEWBURGH       CLOUDY    61  57  88 NE9       29.80F
MONTGOMERY     CLOUDY    60  55  83 N10       29.78S
WHITE PLAINS   CLOUDY    62  56  80 NE5       29.77S
ISLIP          CLOUDY    63  58  83 NE13      29.75F
NEW YORK CITY  CLOUDY    59  55  87 NE10      29.77S
CENTRAL PARK   CLOUDY    59  56  89 NE3       29.80S
$$

NYZ005>009-017-018-044>046-055-056-262000-
CENTRAL


CITY           SKY/WX    TMP DP  RH WIND       PRES   REMARKS
FULTON         SUNNY     72  56  57 CALM      29.75F
SYRACUSE       MOSUNNY   69  56  62 E3        29.75F
ROME           CLOUDY    71  57  61 SE7       29.77F
ELMIRA         SUNNY     73  57  57 VRB3      29.74F
BINGHAMTON     MOSUNNY   68  54  60 VRB3      29.76F
MONTICELLO     CLOUDY    61  57  88 E3        29.80F
$$

NYZ026>034-041>043-087-262000-
NORTH


CITY           SKY/WX    TMP DP  RH WIND       PRES   REMARKS
WATERTOWN      PTSUNNY   72  58  61 NW6       29.75F
FORT DRUM      NOT AVBL
OGDENSBURG     FAIR      70  56  62 N7        29.78F
MASSENA        CLOUDY    64  55  72 NE10      29.82F
SARANAC LAKE   CLOUDY    67  57  70 VRB7      29.80S
PLATTSBURGH    MOSUNNY   65  52  62 SE9       29.82F
$$

NYZ001>004-010>016-019>021-085-262000-
WEST


CITY           SKY/WX    TMP DP  RH WIND       PRES   REMARKS
NIAGARA FALLS  SUNNY     69  55  60 E9        29.72F
BUFFALO        MOSUNNY   70  55  59 CALM      29.73F
DUNKIRK        SUNNY     65  55  70 N10       29.72F
JAMESTOWN      SUNNY     72  55  56 S9        29.73F
WELLSVILLE     MOSUNNY   73  54  51 VRB6      29.78F
ROCHESTER      MOSUNNY   70  56  61 NE10      29.75F
PENN YAN       SUNNY     70  55  59 CALM      29.76F
$$

             KEY
       WCI = WIND CHILL INDEX
       VSB = VISIBILITY
       HX  = HEAT INDEX
$$




USA.gov is the U.S. government's official web portal to all federal, state and local government web resources and services.